Ignacio, CO

9:19 AM MST on January 17, 2017 (GMT -0700)
Durango-La Plata County

Weather History for KDRO - April, 2012

Change the Weather History Date:

Wednesday, April 11, 2012

  Actual Average Record
Temperature  
Mean Temperature 55 °F 44 °F  
Max Temperature 73 °F 60 °F 75 °F (1971)
Min Temperature 37 °F 28 °F 12 °F (1999)
Degree Days  
Heating Degree Days 10 21  
Month to date heating degree days 204 246  
Since 1 July heating degree days 5852 6275  
Cooling Degree Days 0 0  
Month to date cooling degree days 0 0  
Year to date cooling degree days 0 0  
Growing Degree Days 4 (Base 50)    
Moisture  
Dew Point 26 °F    
Average Humidity 40    
Maximum Humidity 70    
Minimum Humidity 10    
Precipitation  
Precipitation T in 0.04 in 0.83 in (1975)
Month to date precipitation 0.29 0.42  
Year to date precipitation 2.39 3.95  
Sea Level Pressure  
Sea Level Pressure 29.84 in    
Wind  
Wind Speed 10 mph (South)    
Max Wind Speed 35 mph    
Max Gust Speed 43 mph    
Visibility 10 miles    
Events Rain , Thunderstorm    
T = Trace of Precipitation, MM = Missing Value Source: NWS Daily Summary

Daily Weather History Graph

Daily Weather History Graph

Search for Another Location

Airport or City:

Trip Planner

Search our weather history database for the weather conditions in past years. The results will help you decide how hot, cold, wet, or windy it might be!

Date:

Astronomy

Apr. 11, 2012 Rise Set
Actual Time 6:41 AM MDT 7:42 PM MDT
Civil Twilight 6:14 AM MDT 8:09 PM MDT
Nautical Twilight 5:43 AM MDT 8:41 PM MDT
Astronomical Twilight 5:10 AM MDT 9:14 PM MDT
Moon 12:35 AM MDT (4/11) 10:38 AM MDT (4/11)
Length of Visible Light 13h 54m
Length of Day
13h 01m
Waning Gibbous, 68% of the Moon is Illuminated
Apr 11
Waning Gibbous
Apr 13
Last Quarter
Apr 21
New
Apr 29
First Quarter
May 5
Full

Hourly Weather History & Observations

Time (MDT) Temp. Windchill Dew Point Humidity Pressure Visibility Wind Dir Wind Speed Gust Speed Precip Events Conditions
12:53 AM 48.0 °F - 30.9 °F 52% 29.95 in 10.0 mi NNE 5.8 mph - N/A   Clear
1:53 AM 46.0 °F - 30.9 °F 56% 29.93 in 10.0 mi Calm Calm - N/A   Clear
2:53 AM 43.0 °F 39.5 °F 30.0 °F 60% 29.93 in 10.0 mi NE 5.8 mph - N/A   Clear
3:53 AM 43.0 °F - 30.0 °F 60% 29.94 in 10.0 mi Calm Calm - N/A   Clear
4:53 AM 37.0 °F 33.3 °F 28.0 °F 70% 29.95 in 10.0 mi East 4.6 mph - N/A   Clear
5:53 AM 42.1 °F - 30.9 °F 65% 29.94 in 10.0 mi Calm Calm - N/A   Partly Cloudy
7:53 AM 43.0 °F 41.3 °F 32.0 °F 65% 29.95 in 10.0 mi ENE 3.5 mph - N/A   Overcast
8:53 AM 51.1 °F - 34.0 °F 52% 29.94 in 10.0 mi Calm Calm - N/A   Overcast
9:53 AM 60.1 °F - 34.0 °F 38% 29.89 in 10.0 mi SE 9.2 mph - N/A   Clear
10:53 AM 64.9 °F - 35.1 °F 33% 29.87 in 10.0 mi SE 9.2 mph - N/A   Clear
11:53 AM 69.1 °F - 28.0 °F 22% 29.83 in 10.0 mi SSE 18.4 mph 26.5 mph N/A   Partly Cloudy
12:53 PM 69.1 °F - 26.1 °F 20% 29.81 in 10.0 mi South 15.0 mph 27.6 mph N/A   Mostly Cloudy
1:53 PM 70.0 °F - 27.0 °F 20% 29.78 in 10.0 mi South 16.1 mph 27.6 mph N/A   Scattered Clouds
2:53 PM 71.1 °F - 28.9 °F 21% 29.75 in 10.0 mi South 13.8 mph 29.9 mph N/A   Scattered Clouds
4:24 PM 69.8 °F - 23.0 °F 17% 29.87 in 10.0 mi SSE 23.0 mph 32.2 mph N/A   Scattered Clouds
4:42 PM 66.2 °F - 26.6 °F 23% 29.87 in 10.0 mi SSW 12.7 mph 42.6 mph 0.00 in Rain , Thunderstorm Light Rain
4:51 PM 68.0 °F - 24.8 °F 20% 29.86 in 10.0 mi SSW 12.7 mph 24.2 mph 0.00 in   Mostly Cloudy
4:53 PM 68.0 °F - 24.1 °F 19% 29.71 in 10.0 mi SSW 10.4 mph 20.7 mph 0.00 in   Mostly Cloudy
5:53 PM 70.0 °F - 14.0 °F 12% 29.65 in 10.0 mi SW 20.7 mph 27.6 mph N/A   Partly Cloudy
6:53 PM 68.0 °F - 10.9 °F 11% 29.66 in 10.0 mi SSW 24.2 mph 34.5 mph N/A   Partly Cloudy
7:53 PM 64.0 °F - 16.0 °F 16% 29.70 in 10.0 mi WSW 23.0 mph 35.7 mph N/A   Mostly Cloudy
8:53 PM 59.0 °F - 15.1 °F 18% 29.74 in 10.0 mi WSW 20.7 mph 34.5 mph N/A   Scattered Clouds
9:53 PM 53.1 °F - 25.0 °F 34% 29.77 in 7.0 mi West 19.6 mph - N/A   Overcast
10:53 PM 48.9 °F - 26.1 °F 41% 29.81 in 6.0 mi West 12.7 mph - N/A   Haze
11:53 PM 46.0 °F - 25.0 °F 44% 29.82 in 7.0 mi Calm Calm - N/A   Overcast